DateTimeUTC,F1_A11,F1_S11,BsB_S11,BsG_S11,BsR_S11,BbsB_S11,BbsG_S11,BbsR_S11,BaB_A11,BaG_A11,BaR_A11,Tu_S11,T_S11,Uu_S11,U_S11,P_S11,T1_A11
2021-07-12T01:00:00Z,00000200,20000000,,,,,,,-000.25,-000.61,-000.16,18.7,25.2,11.6,07.8,0674.0,31.0
2021-07-12T01:01:00Z,00000200,20000000,,,,,,,-000.08,0000.53,-000.00,18.7,25.2,11.6,07.8,0674.0,31.0
2021-07-12T01:02:00Z,00000200,20000000,,,,,,,-000.26,-000.49,-000.27,18.6,25.2,11.5,07.7,0674.0,31.0
2021-07-12T01:03:00Z,00000200,60000000,,,,,,,0000.05,-000.26,-000.25,18.6,25.2,11.4,07.6,0674.0,31.0
2021-07-12T01:04:00Z,00000200,40000000,0001.35,0000.63,0000.23,0000.68,0000.22,0000.57,0000.06,0000.31,0000.29,18.7,25.0,11.0,07.5,0675.0,31.0
2021-07-12T01:05:00Z,00000200,00000000,0000.64,0000.57,0000.78,0000.52,0000.23,0000.49,0000.41,-000.11,0000.01,18.8,25.0,11.0,07.5,0675.0,31.0
2021-07-12T01:06:00Z,00000200,00000000,0000.21,0000.26,0000.65,0000.23,0000.16,0000.19,-000.46,0000.13,-000.28,18.8,25.0,11.0,07.5,0675.0,31.0
2021-07-12T01:07:00Z,00000200,00000000,-000.03,0000.58,0000.39,-000.02,-000.01,0000.14,-000.06,-000.11,0000.32,18.8,25.0,10.9,07.5,0675.0,31.0
2021-07-12T01:08:00Z,00000200,00000000,0000.23,0000.33,0000.42,-000.05,0000.07,0000.40,0000.77,0000.40,0000.36,18.8,25.0,11.1,07.6,0675.0,31.0
2021-07-12T01:09:00Z,00000200,00000000,0000.88,0000.84,0000.53,0000.64,0000.31,0000.16,-000.29,-000.30,-000.11,18.8,25.0,11.1,07.6,0675.0,31.0
2021-07-12T01:10:00Z,00000200,00000000,0001.71,0000.75,0000.40,0000.40,0000.04,-000.17,0000.12,0000.26,-000.03,18.8,25.0,11.0,07.6,0675.0,31.0
2021-07-12T01:11:00Z,00000200,00000000,0001.50,0000.78,0000.41,0000.63,-000.01,0000.23,0000.08,0000.09,0000.28,18.8,24.9,11.2,07.6,0675.0,31.0
2021-07-12T01:12:00Z,00000200,00000000,0001.19,0000.55,0000.34,0000.77,0000.31,0000.23,0000.20,-000.01,-000.09,18.8,25.0,11.1,07.6,0675.0,31.0
2021-07-12T01:13:00Z,00000200,00000000,0001.11,0000.49,0000.39,0000.51,0000.19,0000.40,-000.28,-000.22,-000.04,18.8,25.0,11.1,07.6,0675.0,31.0
2021-07-12T01:14:00Z,00000200,00000000,0000.99,0000.66,0000.72,0000.74,0000.35,0000.11,0000.19,0000.08,0000.02,18.8,25.0,11.0,07.5,0675.0,31.0
2021-07-12T01:15:00Z,00000200,00000000,0001.30,0000.78,0000.22,0000.46,0000.34,0000.32,0000.13,0000.00,-000.07,18.8,25.0,10.9,07.4,0675.0,31.0
2021-07-12T01:16:00Z,00000200,00000000,0001.46,0000.63,0000.75,0000.29,0000.29,0000.48,-000.25,0000.58,-000.02,18.8,25.0,10.9,07.5,0675.0,31.0
2021-07-12T01:17:00Z,00000200,00000000,0001.78,0000.50,0000.58,0000.70,0000.33,0000.13,0000.17,-000.37,0000.20,18.8,25.0,10.8,07.4,0675.0,31.0
2021-07-12T01:18:00Z,00000200,00000000,0001.10,0000.86,0000.40,0000.89,-000.03,-000.25,0000.24,0000.12,0000.18,18.8,25.0,10.8,07.4,0675.0,31.0
2021-07-12T01:19:00Z,00000200,00000000,0000.67,0000.83,0000.54,0000.13,0000.10,0000.28,0000.01,0000.19,-000.27,18.8,25.0,10.8,07.4,0675.0,31.0
2021-07-12T01:20:00Z,00000200,00000000,0001.30,0000.84,0000.68,0000.90,0000.34,0000.31,-000.18,-000.09,0000.18,18.8,24.9,10.7,07.4,0675.0,31.0
2021-07-12T01:21:00Z,00000200,00000000,0001.19,0000.48,0000.48,0001.35,0000.19,0000.02,0000.07,0000.03,-000.38,18.8,24.9,10.6,07.3,0675.0,31.0
2021-07-12T01:22:00Z,00000200,00000000,0000.81,0000.13,0000.15,0000.08,0000.20,-000.18,0000.09,0000.03,0000.52,18.8,24.9,10.7,07.3,0675.0,31.0
2021-07-12T01:23:00Z,00000200,00000000,0001.40,0000.59,0000.41,0000.73,0000.23,0000.10,-000.15,0000.09,-000.15,18.8,24.9,10.6,07.3,0675.0,31.0
2021-07-12T01:24:00Z,00000200,00000000,0000.75,0000.59,0000.51,0000.24,0000.14,0000.43,0000.35,-000.01,0000.33,18.8,24.9,10.4,07.2,0674.9,31.0
2021-07-12T01:25:00Z,00000200,00000000,0001.35,0000.51,0000.29,0000.29,0000.03,0000.29,-000.16,0000.17,-000.17,18.8,24.9,10.5,07.2,0674.9,31.0
2021-07-12T01:26:00Z,00000200,00000000,0001.14,0000.75,0000.48,0000.75,0000.13,-000.05,0000.20,0000.21,-000.06,18.8,24.9,10.6,07.3,0674.9,31.0
2021-07-12T01:27:00Z,00000200,00000000,0001.22,0000.44,0000.46,0000.77,0000.45,-000.13,-000.09,-000.27,0000.07,18.8,24.9,10.7,07.3,0674.9,31.0
2021-07-12T01:28:00Z,00000200,00000000,0000.93,0000.81,0000.36,0000.39,0000.14,0000.30,0000.28,0000.20,0000.27,18.8,24.9,10.7,07.3,0674.9,31.0
2021-07-12T01:29:00Z,00000200,00000000,0001.13,0000.45,0000.10,-000.06,0000.21,0000.01,0000.14,0000.05,-000.24,18.8,24.9,10.6,07.3,0674.9,31.0
2021-07-12T01:30:00Z,00000200,00000000,0001.01,0000.60,0000.75,0000.39,0000.09,0000.10,-000.03,-000.14,0000.09,18.8,24.9,10.6,07.3,0674.9,31.0
2021-07-12T01:31:00Z,00000200,00000000,0000.81,0000.67,0000.69,0000.59,0000.39,-000.06,-000.20,0000.09,-000.15,18.8,24.9,10.5,07.2,0674.9,31.0
2021-07-12T01:32:00Z,00000200,00000000,0001.16,0000.62,0000.72,0000.25,0000.46,0000.22,-000.19,0000.00,0000.20,18.8,24.9,10.3,07.1,0674.9,31.0
2021-07-12T01:33:00Z,00000200,00000000,0001.20,0000.60,0000.58,0000.37,0000.01,0000.22,0000.36,-000.15,-000.14,18.8,24.9,10.3,07.1,0674.9,31.0
2021-07-12T01:34:00Z,00000200,00000000,0001.03,0000.56,0000.17,0000.77,0000.28,0000.03,-000.20,0000.32,0000.26,18.8,24.9,10.1,07.0,0674.9,31.0
2021-07-12T01:35:00Z,00000200,00000000,0000.91,0000.53,0000.51,0000.52,0000.12,0000.28,0000.06,-000.10,0000.02,18.8,24.9,10.1,07.0,0674.9,31.0
2021-07-12T01:36:00Z,00000200,00000000,0001.08,0000.01,0000.31,-000.18,0000.14,0000.13,0000.24,0000.13,-000.04,18.8,24.9,10.3,07.1,0674.9,31.0
2021-07-12T01:37:00Z,00000200,00000000,0001.63,0000.30,0000.50,0000.33,0000.44,0000.13,-000.07,-000.09,-000.01,18.8,24.9,10.2,07.0,0674.9,31.0
2021-07-12T01:38:00Z,00000200,00000000,0001.95,0000.48,0000.35,0000.72,0000.37,0000.36,-000.61,-000.32,-000.28,18.7,24.9,09.8,06.7,0674.9,31.0
2021-07-12T01:39:00Z,00000200,00000000,0000.37,0000.50,0000.40,0000.41,0000.17,-000.05,0000.19,0000.16,0000.07,18.7,24.9,09.6,06.6,0674.9,31.0
2021-07-12T01:40:00Z,00000200,00000000,0000.95,0000.59,0000.87,-000.03,0000.25,0000.44,0000.51,0000.14,0000.27,18.7,24.9,09.8,06.7,0674.9,31.0
2021-07-12T01:41:00Z,00000200,00000000,0000.73,0000.52,0000.63,0000.40,0000.20,0000.19,0000.17,0000.20,-000.14,18.7,24.9,10.0,06.9,0674.9,31.0
2021-07-12T01:42:00Z,00000200,00000000,0001.32,0000.43,0000.41,0000.99,0000.04,0000.41,-000.40,-000.15,0000.12,18.7,24.9,10.1,06.9,0675.0,31.0
2021-07-12T01:43:00Z,00000200,00000000,0001.06,0000.73,0000.40,0000.64,0000.28,0000.08,-000.00,-000.28,-000.44,18.7,24.9,09.6,06.6,0675.0,31.0
2021-07-12T01:44:00Z,00000200,00000000,0001.58,0000.58,0000.59,0000.36,0000.07,0000.37,0000.25,0000.10,0000.33,18.7,24.9,09.5,06.5,0675.0,31.0
2021-07-12T01:45:00Z,00000200,00000000,0001.10,0000.61,0000.27,0000.33,0000.12,0000.17,0000.11,0000.10,0000.20,18.7,24.9,09.7,06.7,0674.9,31.0
2021-07-12T01:46:00Z,00000200,00000000,0001.22,0000.49,0000.75,0000.53,0000.25,0000.29,0000.02,0000.12,-000.16,18.7,24.9,09.8,06.8,0674.9,31.0
2021-07-12T01:47:00Z,00000200,00000000,0001.40,0000.43,0000.39,0000.49,0000.08,0000.41,0000.01,0000.38,0000.45,18.7,24.9,09.8,06.8,0674.9,31.0
2021-07-12T01:48:00Z,00000200,00000000,0000.91,0000.72,0000.36,0000.55,0000.13,0000.41,0000.20,-000.03,-000.24,18.7,24.9,10.0,06.9,0674.9,31.0
2021-07-12T01:49:00Z,00000200,00000000,0001.22,0000.65,0000.54,0000.91,0000.46,-000.03,0000.10,0000.06,0000.04,18.7,24.9,09.9,06.8,0674.9,31.0
2021-07-12T01:50:00Z,00000200,00000000,0000.97,0000.62,0000.01,0000.69,0000.29,0000.16,-000.26,-000.07,0000.11,18.8,24.9,09.7,06.7,0674.9,31.1
2021-07-12T01:51:00Z,00000200,00000000,0001.00,0000.60,0000.54,0000.32,0000.41,0000.20,0000.29,0000.09,0000.10,18.9,25.0,09.7,06.7,0674.9,31.1
2021-07-12T01:52:00Z,00000200,00000000,0001.07,0000.65,0000.28,0000.44,0000.10,0000.01,0000.42,0000.40,0000.23,18.9,25.0,09.7,06.7,0674.9,31.1
2021-07-12T01:53:00Z,00000200,00000000,0001.23,0000.59,0000.65,0000.54,0000.43,0000.50,-000.41,-000.34,-000.10,18.9,25.0,09.8,06.8,0674.9,31.1
2021-07-12T01:54:00Z,00000200,00000000,0001.44,0000.73,0000.53,0000.40,0000.23,0000.09,0000.07,0000.08,0000.00,18.9,25.0,09.7,06.7,0674.9,31.1
2021-07-12T01:55:00Z,00000200,00000000,0001.09,0000.58,0000.48,0000.88,0000.03,0000.28,-000.00,-000.14,-000.02,18.9,25.0,09.7,06.7,0674.9,31.0
2021-07-12T01:56:00Z,00000200,00000000,0001.34,0000.50,0000.39,0000.87,0000.19,0000.50,-000.17,0000.08,-000.16,18.9,25.0,09.1,06.3,0674.9,31.0
2021-07-12T01:57:00Z,00000200,40000000,,,,,,,0000.53,0000.26,0000.40,19.0,25.0,08.8,06.1,0674.9,31.0
2021-07-12T01:58:00Z,00000200,60000000,,,,,,,-000.18,0000.23,0000.04,18.7,25.1,09.6,06.5,0673.9,31.0
2021-07-12T01:59:00Z,00000200,20000000,,,,,,,0000.01,-000.47,0000.03,18.7,25.2,09.4,06.3,0673.9,31.0
